This is the latest recevied weather packets stored in our database for station/object K8WEH. If no packets are shown the sender has not sent any weather packets the latest 10 day(s).
| Time | Temp. | Humidity | Pressure | Rain* | Wind** | Luminosity | Snow |
|---|---|---|---|---|---|---|---|
| 1777930820 | 22.78° C | 52% | 1009.4 hPa | 0 mm | - | - | - |
| 1777930520 | 22.78° C | 52% | 1009.3 hPa | 0 mm | - | - | - |
| 1777930221 | 22.78° C | 52% | 1009.4 hPa | 0 mm | - | - | - |
| 1777929921 | 22.78° C | 53% | 1009.6 hPa | 0 mm | - | - | - |
| 1777929619 | 22.78° C | 53% | 1009.6 hPa | 0 mm | - | - | - |
| 1777929319 | 22.78° C | 54% | 1009.7 hPa | 0 mm | - | - | - |
| 1777929018 | 22.78° C | 54% | 1009.8 hPa | 0 mm | - | - | - |
| 1777928718 | 22.78° C | 53% | 1009.8 hPa | 0 mm | - | - | - |
| 1777928423 | 22.78° C | 58% | 1009.6 hPa | 0 mm | - | - | - |
| 1777928118 | 22.78° C | 55% | 1009.7 hPa | 0 mm | - | - | - |
| 1777927817 | 22.78° C | 55% | 1009.8 hPa | 0 mm | - | - | - |
| 1777927576 | 22.78° C | 55% | 1009.8 hPa | 0 mm | - | - | - |
| 1777927215 | 22.78° C | 53% | 1010 hPa | 0 mm | - | - | - |
| 1777926918 | 23.33° C | 52% | 1010 hPa | 0 mm | - | - | - |
| 1777926613 | 23.33° C | 52% | 1010.1 hPa | 0 mm | - | - | - |
| 1777926316 | 23.33° C | 55% | 1010.3 hPa | 0 mm | - | - | - |
| 1777926012 | 23.33° C | 53% | 1010.4 hPa | 0 mm | - | - | - |
| 1777925708 | 23.33° C | 53% | 1010.6 hPa | 0 mm | - | - | - |
| 1777925407 | 22.78° C | 54% | 1010.6 hPa | 0 mm | - | - | - |
| 1777925105 | 22.78° C | 55% | 1010.6 hPa | 0 mm | - | - | - |
| 1777924807 | 22.22° C | 56% | 1010.6 hPa | 0 mm | - | - | - |
| 1777924502 | 22.22° C | 55% | 1010.7 hPa | 0 mm | - | - | - |
| 1777924202 | 22.22° C | 55% | 1010.7 hPa | 0 mm | - | - | - |
| 1777923901 | 21.67° C | 55% | 1010.8 hPa | 0 mm | - | - | - |
| 1777923660 | 21.67° C | 54% | 1011.1 hPa | 0 mm | - | - | - |
* Rain latest hour (hover to see other rain measurements)
** Current wind speed in m/s (hover to see current wind gust speed)